Simultaneous Nadir Overpasses (SNOs) Predictions

Prediction of SNOs between AQUA and GOES-15 Satellite Orbit:

Table of predicted SNOs for the next 14.0 days since TLE Epoch: 3/20/2021
Index Date Time (AQUA) AQUA Lat,Lon GOES-15 Lat,Lon Distance(km) Time Diff (sec)
1 03/20/2021 09:54:57 -0.81,-124.96 -0.10,-128.40 390.38 80
2 03/20/2021 22:16:21 -0.30,-130.15 0.09,-128.42 197.85 80
3 03/22/2021 22:04:10 0.33,-127.20 0.08,-128.41 137.06 80
4 03/23/2021 10:25:26 0.75,-132.36 -0.07,-128.39 450.64 80
5 03/24/2021 21:51:59 0.97,-124.25 0.08,-128.39 471.43 80
6 03/25/2021 10:13:14 0.17,-129.39 -0.07,-128.37 116.56 80
7 03/27/2021 10:01:03 -0.47,-126.44 -0.07,-128.35 217.10 80
8 03/27/2021 22:22:27 -0.64,-131.63 0.06,-128.35 373.00 80
9 03/29/2021 22:10:16 0.00,-128.68 0.06,-128.33 39.69 80
10 03/31/2021 21:58:04 0.59,-125.72 0.07,-128.30 292.99 80
11 04/01/2021 10:19:20 0.48,-130.88 -0.05,-128.29 294.04 80
